K0FJ-1 Weather Reports


Display with metric or nautical units.
time (UTC)temp
F
wind
direction
speed
MPH
gust
MPH
rain 1hr
in
rain 24hr
in
rain mn
in
humidity
%
barometer
mb
20260505220005 45 0 0.0 0.0 0.02 0.07 0.07 87 1014.4
20260505215503 45 0 0.0 0.0 0.02 0.07 0.07 86 1014.5
20260505215003 45 0 0.0 0.0 0.02 0.07 0.07 87 1014.5
20260505214503 45 0 0.0 0.0 0.01 0.06 0.06 87 1014.4
20260505214003 45 0 0.0 0.0 0.01 0.06 0.06 86 1014.5
20260505213503 45 78 0.0 1.0 0.01 0.06 0.06 85 1014.5
20260505213003 45 78 0.0 1.0 0.01 0.06 0.06 84 1014.6
20260505212503 45 0 0.0 0.0 0.01 0.06 0.06 83 1014.5
20260505212003 45 68 0.0 1.0 0.01 0.06 0.06 85 1014.5
20260505211503 45 74 0.0 1.0 0.01 0.06 0.06 84 1014.6
20260505211003 45 103 0.0 1.0 0.01 0.06 0.06 83 1014.7
20260505210503 45 103 0.0 1.0 0.01 0.06 0.06 84 1014.7
20260505210003 45 0 0.0 0.0 0.00 0.05 0.05 83 1014.8
20260505205504 45 0 0.0 0.0 0.00 0.05 0.05 83 1014.9
20260505205003 46 0 0.0 0.0 0.00 0.05 0.05 85 1014.9
20260505204503 46 0 0.0 0.0 0.00 0.05 0.05 85 1014.9
20260505204005 45 176 0.0 1.0 0.00 0.05 0.05 84 1014.9
20260505203503 45 176 0.0 1.0 0.00 0.05 0.05 84 1015.0
20260505203003 45 259 0.0 1.0 0.00 0.05 0.05 84 1014.9
20260505202503 45 281 0.0 1.0 0.00 0.05 0.05 83 1014.8
20260505202003 45 3 0.0 2.0 0.00 0.05 0.05 83 1014.6
20260505201503 45 5 0.0 2.0 0.00 0.05 0.05 82 1014.6
20260505201003 46 47 0.0 2.0 0.00 0.05 0.05 83 1014.6
20260505200505 46 94 0.0 2.0 0.00 0.05 0.05 83 1014.5
20260505200003 46 73 0.0 2.0 0.00 0.05 0.05 83 1014.6
20260505195503 46 59 0.0 2.0 0.00 0.05 0.05 82 1014.7
20260505195003 46 59 0.0 1.0 0.00 0.05 0.05 83 1014.8
20260505194503 45 0 0.0 0.0 0.00 0.05 0.05 85 1014.9
20260505194003 45 0 0.0 0.0 0.01 0.05 0.05 85 1014.9
20260505193505 45 0 0.0 0.0 0.01 0.05 0.05 84 1015.0
20260505193005 45 0 0.0 0.0 0.01 0.05 0.05 84 1015.1
20260505192503 45 59 0.0 3.0 0.01 0.05 0.05 83 1015.1
20260505192003 45 60 0.0 3.0 0.01 0.05 0.05 82 1015.2
20260505191503 45 61 0.0 2.0 0.01 0.05 0.05 81 1015.2
20260505191003 46 0 0.0 0.0 0.01 0.05 0.05 80 1015.1
20260505190503 45 0 0.0 0.0 0.01 0.05 0.05 83 1015.1
20260505190003 45 16 0.0 2.0 0.02 0.05 0.05 82 1015.1
20260505185503 45 14 0.0 2.0 0.02 0.05 0.05 84 1015.2
20260505185003 45 329 0.0 1.0 0.02 0.05 0.05 83 1015.2
20260505184503 46 0 0.0 0.0 0.02 0.05 0.05 84 1015.3
20260505184003 46 0 0.0 0.0 0.01 0.04 0.04 86 1015.3
20260505183503 46 0 0.0 0.0 0.01 0.04 0.04 85 1015.4
20260505183003 45 0 0.0 0.0 0.01 0.04 0.04 84 1015.5
20260505182503 45 0 0.0 0.0 0.01 0.04 0.04 84 1015.6
20260505182003 45 329 0.0 1.0 0.01 0.04 0.04 83 1015.5
20260505181503 45 329 0.0 1.0 0.01 0.04 0.04 81 1015.6
20260505181003 46 329 0.0 2.0 0.01 0.04 0.04 82 1015.7
20260505180503 46 329 0.0 2.0 0.01 0.04 0.04 82 1015.7
20260505180003 46 332 1.0 3.0 0.00 0.03 0.03 82 1015.7
20260505175503 46 332 1.0 3.0 0.00 0.03 0.03 80 1015.7
20260505175003 46 0 0.0 0.0 0.00 0.03 0.03 80 1015.9
20260505174503 46 0 0.0 0.0 0.00 0.03 0.03 81 1015.9
20260505174003 46 0 0.0 0.0 0.00 0.03 0.03 80 1015.8
20260505173503 46 0 0.0 0.0 0.00 0.03 0.03 81 1015.7
20260505173003 46 0 0.0 0.0 0.00 0.03 0.03 80 1015.8
20260505172503 46 0 0.0 0.0 0.00 0.03 0.03 81 1015.9
20260505172003 46 126 0.0 1.0 0.00 0.03 0.03 83 1016.0
20260505171503 45 109 0.0 2.0 0.00 0.03 0.03 82 1016.0
20260505171003 45 108 0.0 2.0 0.00 0.03 0.03 80 1016.0
20260505170503 45 0 0.0 0.0 0.00 0.03 0.03 82 1016.1
20260505170003 45 0 0.0 0.0 0.00 0.03 0.03 81 1016.2
20260505165503 45 0 0.0 0.0 0.00 0.03 0.03 81 1016.2
20260505165003 45 0 0.0 0.0 0.00 0.03 0.03 82 1016.2
20260505164503 45 0 0.0 0.0 0.00 0.03 0.03 81 1016.3
20260505164003 45 0 0.0 0.0 0.00 0.03 0.03 81 1016.2
20260505163503 45 0 0.0 0.0 0.00 0.03 0.03 81 1016.0
20260505163003 45 0 0.0 0.0 0.00 0.03 0.03 83 1016.0
20260505162505 45 0 0.0 0.0 0.00 0.03 0.03 83 1015.9
20260505162003 44 0 0.0 0.0 0.00 0.03 0.03 84 1015.9
20260505161503 44 0 0.0 0.0 0.00 0.03 0.03 85 1015.8
20260505161003 44 105 0.0 3.0 0.00 0.03 0.03 85 1015.7
20260505160503 44 105 0.0 3.0 0.00 0.03 0.03 86 1015.6
20260505153005 44 13 0.0 1.0 0.00 0.03 0.03 87 1015.6
20260505152504 44 0 0.0 0.0 0.00 0.03 0.03 87 1015.6
20260505152003 43 34 0.0 3.0 0.00 0.03 0.03 87 1015.6
20260505151503 43 25 0.0 3.0 0.00 0.03 0.03 87 1015.4
20260505151003 43 14 0.0 2.0 0.01 0.03 0.03 87 1015.3
20260505150505 43 12 0.0 2.0 0.01 0.03 0.03 87 1015.4
20260505140503 43 6 2.0 5.0 0.00 0.02 0.02 88 1015.2
20260505125003 43 26 1.0 5.0 0.01 0.02 0.02 82 1014.0
20260505124503 43 11 2.0 7.0 0.01 0.02 0.02 85 1013.8
20260505124003 43 8 2.0 7.0 0.01 0.02 0.02 86 1013.7
20260505123503 43 356 2.0 5.0 0.01 0.02 0.02 88 1013.7
20260505123003 43 344 1.0 5.0 0.01 0.02 0.02 89 1013.7
20260505122503 43 344 1.0 3.0 0.01 0.02 0.02 89 1013.6
20260505122004 43 334 1.0 3.0 0.01 0.02 0.02 89 1013.5
20260505121503 43 337 1.0 3.0 0.01 0.02 0.02 88 1013.4
20260505121003 43 360 0.0 2.0 0.01 0.02 0.02 88 1013.3
20260505120503 43 360 0.0 2.0 0.01 0.02 0.02 88 1013.3
20260505120004 43 0 0.0 0.0 0.00 0.01 0.01 87 1013.1
20260505115503 43 0 0.0 0.0 0.00 0.01 0.01 87 1013.0
20260505115003 43 0 0.0 0.0 0.00 0.01 0.01 86 1012.8
20260505114503 43 26 0.0 3.0 0.00 0.01 0.01 86 1012.8
20260505114003 43 27 1.0 3.0 0.00 0.01 0.01 85 1012.7
20260505113503 44 27 1.0 3.0 0.00 0.01 0.01 85 1012.6
20260505113003 44 26 1.0 5.0 0.00 0.01 0.01 84 1012.5
20260505112503 44 13 1.0 5.0 0.00 0.01 0.01 84 1012.4
20260505112003 44 8 1.0 5.0 0.00 0.01 0.01 84 1012.3
20260505111503 44 14 1.0 5.0 0.00 0.01 0.01 84 1012.0
20260505111003 44 15 1.0 5.0 0.00 0.01 0.01 85 1012.0
20260505110504 44 16 1.0 4.0 0.00 0.01 0.01 86 1011.8
20260505102003 43 31 1.0 4.0 0.01 0.01 0.01 88 1011.5
20260505101503 43 23 2.0 4.0 0.01 0.01 0.01 88 1011.4
20260505101003 43 28 2.0 4.0 0.01 0.01 0.01 88 1011.4
20260505100503 43 27 2.0 4.0 0.01 0.01 0.01 88 1011.4
20260505100003 43 26 2.0 4.0 0.01 0.01 0.01 88 1011.5
20260505095503 43 32 1.0 3.0 0.01 0.01 0.01 88 1011.7
20260505095003 43 29 1.0 3.0 0.01 0.01 0.01 87 1011.6
20260505094504 43 29 1.0 5.0 0.01 0.01 0.01 87 1011.6
20260505094003 44 27 2.0 5.0 0.01 0.01 0.01 86 1011.5
20260505093503 44 31 1.0 4.0 0.01 0.01 0.01 86 1011.6
20260505093003 44 39 1.0 4.0 0.00 0.00 0.01 85 1011.5
20260505092503 44 41 2.0 4.0 0.00 0.00 0.00 84 1011.6
20260505092003 44 35 2.0 4.0 0.00 0.00 0.00 84 1011.7
20260505091503 44 28 2.0 4.0 0.00 0.00 0.00 83 1011.5
20260505091003 44 28 1.0 4.0 0.00 0.00 0.00 83 1011.5
20260505090503 44 26 1.0 4.0 0.00 0.00 0.00 82 1011.6
20260505090005 45 42 1.0 4.0 0.00 0.00 0.00 82 1011.7
20260505085503 45 53 1.0 4.0 0.00 0.00 0.00 81 1011.6
20260505085004 45 54 1.0 3.0 0.00 0.00 0.00 81 1011.7
20260505084503 45 71 1.0 3.0 0.00 0.00 0.00 80 1011.8
20260505084003 45 55 0.0 2.0 0.00 0.00 0.00 80 1011.9
20260505083503 45 48 0.0 3.0 0.00 0.00 0.00 80 1011.9
20260505083003 46 73 0.0 3.0 0.00 0.00 0.00 80 1011.9
20260505082503 46 79 0.0 2.0 0.00 0.00 0.00 80 1011.9
20260505082005 46 69 0.0 2.0 0.00 0.00 0.00 80 1011.8
20260505081503 46 74 0.0 4.0 0.00 0.00 0.00 81 1011.7
20260505081003 46 74 1.0 4.0 0.00 0.00 0.00 82 1011.5
20260505080503 46 65 1.0 4.0 0.00 0.00 0.00 83 1011.3
20260505080003 46 49 1.0 6.0 0.00 0.00 0.00 84 1011.1
20260505075503 46 41 2.0 6.0 0.00 0.00 0.00 84 1010.8
20260505075003 46 36 2.0 5.0 0.00 0.00 0.00 84 1010.8
20260505074503 46 37 2.0 5.0 0.00 0.00 0.00 83 1010.7
20260505074003 46 35 2.0 8.0 0.00 0.00 0.00 83 1010.7
20260505073503 47 37 2.0 8.0 0.00 0.00 0.00 81 1010.8
20260505073003 47 44 2.0 5.0 0.00 0.00 0.00 80 1010.9
20260505072503 47 43 2.0 8.0 0.00 0.00 0.00 78 1010.9
20260505072003 47 42 2.0 8.0 0.00 0.00 0.00 77 1011.0
20260505071503 48 43 3.0 12.0 0.00 0.00 0.00 75 1011.0
20260505071003 48 41 4.0 12.0 0.00 0.00 0.00 74 1010.8
20260505070503 48 37 3.0 12.0 0.00 0.00 0.00 74 1011.1
20260505070005 48 39 2.0 6.0 0.00 0.00 0.00 75 1010.9
20260505065503 49 42 2.0 5.0 0.00 0.00 0.00 76 1010.7
20260505065003 49 49 2.0 5.0 0.00 0.00 0.00 75 1010.7
20260505064505 50 67 2.0 4.0 0.00 0.00 0.00 73 1010.8
20260505064003 50 77 2.0 6.0 0.00 0.00 0.00 71 1010.7
20260505063503 51 68 2.0 6.0 0.00 0.00 0.00 69 1010.7
20260505063003 51 62 2.0 4.0 0.00 0.00 0.00 67 1010.8
20260505062503 52 68 2.0 6.0 0.00 0.00 0.00 66 1010.8
20260505062003 52 84 2.0 6.0 0.00 0.00 0.00 64 1010.7
20260505061503 52 92 2.0 4.0 0.00 0.00 0.00 62 1010.8
20260505061003 53 76 2.0 6.0 0.00 0.00 0.00 59 1010.4
20260505060503 53 82 2.0 6.0 0.00 0.00 0.00 58 1010.1
20260505060003 53 90 2.0 8.0 0.00 0.00 0.00 57 1009.8
20260505055503 54 71 2.0 8.0 0.00 0.00 0.00 56 1009.7
20260505055005 54 55 2.0 4.0 0.00 0.00 0.00 55 1009.3
20260505054503 54 74 2.0 4.0 0.00 0.00 0.00 55 1009.0
20260505054003 54 87 2.0 5.0 0.00 0.00 0.00 54 1008.7
20260505053503 54 82 2.0 8.0 0.00 0.00 0.00 54 1008.6
20260505053003 54 80 3.0 8.0 0.00 0.00 0.00 54 1008.6
20260505052503 55 73 2.0 7.0 0.00 0.00 0.00 54 1008.8
20260505052003 55 69 2.0 7.0 0.00 0.00 0.00 53 1008.9
20260505051503 55 72 2.0 7.0 0.00 0.00 0.00 53 1008.9
20260505051003 55 72 2.0 6.0 0.00 0.00 0.00 53 1008.9
20260505050503 55 75 2.0 6.0 0.00 0.00 0.00 52 1008.9
20260505041503 58 65 2.0 6.0 0.00 0.00 0.00 47 1008.6
20260505041003 59 66 2.0 6.0 0.00 0.00 0.00 46 1008.5
20260505040503 59 68 2.0 5.0 0.00 0.00 0.00 45 1008.5
20260505040005 59 73 1.0 3.0 0.00 0.00 0.00 45 1008.5
20260505035503 59 73 2.0 4.0 0.00 0.00 0.00 45 1008.5
20260505035003 60 79 1.0 4.0 0.00 0.00 0.00 44 1008.4
20260505034503 60 81 1.0 5.0 0.00 0.00 0.00 44 1008.2
20260505034003 60 77 2.0 7.0 0.00 0.00 0.00 44 1008.2
20260505033503 60 75 2.0 7.0 0.00 0.00 0.00 44 1008.1
20260505033003 60 64 2.0 8.0 0.00 0.00 0.00 43 1008.2
20260505032504 61 59 2.0 8.0 0.00 0.00 0.00 43 1008.2
20260505032003 61 60 2.0 5.0 0.00 0.00 0.00 43 1008.0
20260505031503 61 60 2.0 5.0 0.00 0.00 0.00 42 1008.0
20260505031004 61 66 2.0 9.0 0.00 0.00 0.00 42 1008.0
20260505030503 62 61 2.0 9.0 0.00 0.00 0.00 41 1008.1
20260505030003 62 52 2.0 7.0 0.00 0.00 0.00 41 1007.6
20260505025504 62 57 2.0 7.0 0.00 0.00 0.00 41 1007.5
20260505025003 62 64 2.0 8.0 0.00 0.00 0.00 40 1007.4
20260505024503 62 71 2.0 8.0 0.00 0.00 0.00 40 1007.3
20260505024005 62 59 2.0 4.0 0.00 0.00 0.00 40 1007.2
20260505023503 63 58 2.0 8.0 0.00 0.00 0.00 39 1007.0
20260505023005 63 64 2.0 9.0 0.00 0.00 0.00 39 1006.9
20260505022505 63 59 3.0 9.0 0.00 0.00 0.00 39 1006.8
20260505022003 64 56 3.0 9.0 0.00 0.00 0.00 38 1006.6
20260505021503 64 54 3.0 10.0 0.00 0.00 0.00 38 1006.5
20260505021003 64 58 3.0 10.0 0.00 0.00 0.00 38 1006.3
20260505020505 64 63 3.0 7.0 0.00 0.00 0.00 39 1006.3
20260505020003 65 57 3.0 7.0 0.00 0.00 0.00 39 1006.1
20260505015503 65 49 2.0 8.0 0.00 0.00 0.00 39 1005.9
20260505015003 65 56 2.0 8.0 0.00 0.00 0.00 39 1005.9
20260505014503 66 59 2.0 7.0 0.00 0.00 0.00 38 1005.8
20260505014003 66 58 3.0 11.0 0.00 0.00 0.00 38 1005.6
20260505013503 66 54 3.0 11.0 0.00 0.00 0.00 38 1005.6
20260505013003 67 48 3.0 10.0 0.00 0.00 0.00 38 1005.4
20260505012505 68 54 3.0 10.0 0.00 0.00 0.00 37 1005.2
20260505012003 68 64 2.0 5.0 0.00 0.00 0.00 38 1005.2
20260505011503 68 73 2.0 7.0 0.00 0.00 0.00 38 1004.9
20260505011003 69 68 3.0 7.0 0.00 0.00 0.00 38 1005.1
20260505010503 69 63 3.0 7.0 0.00 0.00 0.00 38 1005.0
20260505010004 69 65 2.0 6.0 0.00 0.00 0.00 37 1004.9
20260505005503 70 55 2.0 6.0 0.00 0.00 0.00 37 1004.7
20260505005004 70 45 2.0 9.0 0.00 0.00 0.00 37 1004.7
20260505004503 70 51 2.0 9.0 0.00 0.00 0.00 36 1004.7
20260505004003 71 41 3.0 9.0 0.00 0.00 0.00 36 1004.6
20260505003503 71 41 3.0 9.0 0.00 0.00 0.00 36 1004.7
20260505003003 72 46 2.0 8.0 0.00 0.00 0.00 34 1004.8
20260505002504 72 58 2.0 8.0 0.00 0.00 0.00 34 1004.9
20260505002003 73 91 2.0 6.0 0.00 0.00 0.00 33 1004.7
20260505001503 73 91 2.0 6.0 0.00 0.00 0.00 31 1004.6
20260505001003 74 88 2.0 7.0 0.00 0.00 0.00 31 1004.2
20260505000503 74 87 3.0 7.0 0.00 0.00 0.00 31 1003.9
20260505000003 76 81 2.0 9.0 0.00 0.00 0.00 29 1003.7
20260504235503 77 80 2.0 9.0 0.00 0.00 0.00 26 1003.8
20260504235003 78 79 1.0 4.0 0.00 0.00 0.00 23 1003.7
20260504234504 79 86 1.0 3.0 0.00 0.00 0.00 22 1003.2
20260504234003 79 112 1.0 3.0 0.00 0.00 0.00 21 1003.1
20260504233503 80 124 1.0 2.0 0.00 0.00 0.00 21 1003.0
20260504233005 80 124 1.0 2.0 0.00 0.00 0.00 21 1002.9
20260504232503 80 124 1.0 2.0 0.00 0.00 0.00 21 1002.9
20260504232003 81 123 0.0 2.0 0.00 0.00 0.00 20 1002.9
20260504231503 81 134 0.0 2.0 0.00 0.00 0.00 19 1002.8
20260504231003 81 132 1.0 2.0 0.00 0.00 0.00 19 1002.7
20260504230505 81 67 1.0 3.0 0.00 0.00 0.00 19 1002.7
20260504230003 81 46 1.0 3.0 0.00 0.00 0.00 22 1002.7
20260504225503 81 46 1.0 2.0 0.00 0.00 0.00 21 1002.7
20260504225003 81 41 1.0 2.0 0.00 0.00 0.00 20 1002.7
20260504224503 81 76 1.0 3.0 0.00 0.00 0.00 18 1002.7
20260504224003 81 157 1.0 4.0 0.00 0.00 0.00 18 1002.8
20260504223504 81 189 2.0 6.0 0.00 0.00 0.00 18 1002.9
20260504223003 81 188 3.0 6.0 0.00 0.00 0.00 18 1003.0
20260504222503 80 162 3.0 6.0 0.00 0.00 0.00 18 1003.2
20260504222003 80 113 2.0 6.0 0.00 0.00 0.00 19 1003.3
20260504221503 80 109 2.0 3.0 0.00 0.00 0.00 20 1003.3
20260504221003 80 105 2.0 4.0 0.00 0.00 0.00 22 1003.3
20260504220503 79 115 2.0 6.0 0.00 0.00 0.00 20 1003.4